Location: Kansas State University
(39.1938°N, 96.5858°W)
Time: 19:19:13
(UTC-05:00)

Daily predictions for brighter satellites

Satellite Brightness Start Highest point End
(mag) Time Altitude Azimuth Time Altitude Azimuth Time Altitude Azimuth
ATLAS CENTAUR R/B 4.0 20:05:29 10° WNW 20:07:47 16° WSW 20:10:03 10° SSW
Cosmos 1758 Rocket 4.3 20:03:44 10° NNW 20:08:04 59° W 20:12:21 10° S
Meteor 2-16 Rocket 4.4 20:03:25 10° S 20:09:33 78° E 20:15:42 10° N
NOSS 3-4 (A) 4.1 20:02:57 10° NW 20:10:02 79° WSW 20:17:34 10° SSE
NOSS 3-4 (C) 4.1 20:03:02 10° NW 20:10:08 80° WSW 20:17:40 10° SSE
Cosmos 1844 4.1 20:05:14 10° S 20:10:37 43° ESE 20:16:04 10° NE
Helios 1B rocket 4.1 20:08:42 10° ENE 20:11:01 14° E 20:13:18 10° SE
HJ-1C 3.9 20:08:47 10° SE 20:11:58 40° ENE 20:15:12 10° N
CZ-3B DEB 3.4 19:59:26 10° SSW 20:12:50 66° SE 20:18:52 10° NE
Cosmos 2058 Rocket 3.7 20:09:35 10° SSW 20:14:01 64° W 20:18:31 10° N
Lacrosse 4 Rocket 1.4 20:15:48 10° SSW 20:19:47 57° ESE 20:23:46 10° NE
Cosmos 2344 3.7 20:13:07 10° S 20:20:32 54° ESE 20:28:30 10° NE
Cosmos 1680 Rocket 4.2 20:15:40 10° NNW 20:20:51 60° WSW 20:25:59 10° S
CZ-2D R/B 4.2 20:18:20 10° SE 20:21:39 28° ENE 20:25:00 10° NNE
SL-27 R/B 4.0 20:19:25 10° NNE 20:22:03 19° ENE 20:24:09 13° ESE
Cosmos 1937 Rocket 3.6 20:18:23 10° S 20:23:25 52° ESE 20:28:32 10° NNE
Tiangong 1 1.7 20:20:42 10° WNW 20:23:31 41° N 20:25:52 13° ENE
Cosmos 2298 Rocket 4.0 20:20:53 10° S 20:26:07 69° ESE 20:31:26 10° NNE
SJ-6B 2.9 20:22:51 10° S 20:26:36 76° W 20:30:20 10° NNW
Meteor 1-22 Rocket 4.5 20:22:37 10° SSE 20:28:07 49° E 20:33:51 10° NNE
Cosmos 1437 Rocket 2.8 20:25:05 10° S 20:29:00 64° E 20:33:01 10° NNE
USA 186 2.9 20:31:18 15° ENE 20:31:18 15° ENE 20:32:28 10° NNE
Cosmos 1934 Rocket 4.0 20:26:38 10° SSE 20:32:37 56° E 20:38:33 10° NNE
Cosmos 405 3.5 20:33:13 10° SSW 20:36:42 61° W 20:40:13 10° N
ALOS 2.4 20:32:50 10° S 20:37:30 80° WSW 20:42:12 10° NNW
SeaSat 1 3.1 20:35:44 10° SSE 20:40:34 58° WSW 20:45:27 10° NNW
Lacrosse 5 2.1 20:37:41 10° SSW 20:42:29 45° SE 20:47:18 10° NE
Cosmos 1758 4.4 20:43:44 20° ESE 20:44:54 23° E 20:48:03 10° NE
Cosmos 1821 Rocket 4.2 20:44:13 10° S 20:50:37 82° W 20:57:01 10° N
Cosmos 1939 Rocket 4.2 20:50:45 21° E 20:51:14 22° ENE 20:54:24 10° NNE
Resurs 01 Rocket 1.7 20:49:58 10° S 20:54:22 80° WSW 20:58:49 10° NNW
GP-B 4.0 20:53:44 25° ESE 20:55:00 29° E 20:58:50 10° NNE
Cosmos 1953 3.2 20:55:18 27° ESE 20:55:57 29° E 20:59:29 10° NNE
Cosmos 1844 Rocket 3.4 20:51:38 10° SW 20:57:11 58° WNW 21:02:45 10° NNE
In-Cosmos 22 4.1 20:52:39 10° N 20:57:53 54° ENE 21:02:26 13° SSE
Cosmos 1812 Rocket 3.9 20:55:48 10° SSW 21:00:12 68° W 21:04:36 10° N
Cosmos 2278 Rocket 2.1 20:58:16 10° S 21:03:52 68° ESE 21:09:31 10° NNE
Spot 1 4.2 21:03:16 17° SSE 21:06:44 69° ENE 21:11:31 10° N
Cosmos 1378 4.2 21:03:49 10° NNW 21:07:27 47° W 21:11:03 10° SSW
Cosmos 1833 Rocket 3.9 21:03:09 10° N 21:07:33 23° NE 21:08:29 22° ENE
Cosmos 1605 Rocket 3.9 21:02:14 10° S 21:08:26 76° E 21:14:46 10° N
H-2A R/B 3.7 21:04:43 10° S 21:08:27 49° W 21:12:15 10° NNW
SAR-Lupe-4 3.4 21:10:12 27° SSE 21:12:01 87° ENE 21:15:37 10° NNW
Fregat R/B Cluster 11 4.4 21:06:22 10° SSW 21:13:44 70° ESE 21:17:00 12° NE
H-2A R/B (2) 3.4 21:11:20 10° SW 21:14:01 22° S 21:15:05 21° SSE
Meteor 1-24 Rocket 4.1 21:09:32 10° NNW 21:14:57 65° W 21:20:31 10° S
Cosmos 2297 4.1 21:09:56 10° S 21:15:05 37° ESE 21:20:18 10° NE
Spot 2 Rocket 4.2 21:10:50 10° S 21:15:48 55° W 21:20:51 10° NNW
Cosmos 1766 Rocket 4.4 21:13:26 10° NNE 21:17:05 33° ENE 21:17:05 33° ENE
Delta 2 Rocket 3.7 21:16:25 10° W 21:20:44 47° S 21:21:20 43° SSE
RESURS DK-1 2.2 21:17:17 10° NNW 21:21:27 87° ENE 21:22:33 48° SSE
Cosmos 2123 Rocket 4.2 21:15:42 10° N 21:22:01 74° W 21:28:17 10° S
Cosmos 1076 Rocket 3.5 21:19:47 10° N 21:23:57 55° E 21:24:04 54° E
USA 215 3.2 21:22:18 10° NE 21:28:52 85° NW 21:35:24 10° SW
Timation 1 Rocket 4.3 21:23:10 10° S 21:29:03 61° ESE 21:34:59 10° NNE
Cosmos 2061 Rocket 4.4 21:28:29 39° ESE 21:29:06 39° E 21:35:00 10° NNE
SAR-Lupe-1 4.5 21:30:22 41° SSW 21:31:21 60° WSW 21:34:54 10° NNW
Envisat 2.8 21:31:45 40° SSE 21:33:36 79° ENE 21:38:42 10° N
Cosmos 2082 Rocket 2.6 21:29:35 10° N 21:34:58 41° ENE 21:35:17 41° ENE
Cosmos 1153 Rocket 4.4 21:30:00 10° S 21:36:22 85° E 21:42:49 10° N
Cosmos 1125 Rocket 3.3 21:34:05 10° S 21:39:14 71° ESE 21:44:26 10° NNE
Cosmos 1544 3.7 21:38:22 27° SSW 21:40:07 54° W 21:43:43 10° N
Meteor 1-4 Rocket 4.4 21:42:31 22° N 21:42:31 22° N 21:43:52 10° N
Helios 1A 4.0 21:40:59 23° SSW 21:43:13 44° W 21:47:14 10° NNW
SJ-11-01 4.2 21:42:28 59° S 21:43:23 88° WSW 21:48:09 10° NNW
Cosmos 1048 Rocket 4.1 21:40:16 10° N 21:45:00 54° NE 21:45:00 54° NE
Helios 1B rocket 3.7 21:42:35 10° N 21:46:29 41° WNW 21:50:22 10° SW
Meteor 1-21 Rocket 4.2 21:45:47 10° N 21:51:37 87° W 21:53:27 47° S
Cosmos 1818 3.5 21:51:18 10° NNW 21:56:37 70° NE 21:56:37 70° NE
BREEZE-M DEB (TANK) 3.3 21:53:55 10° SW 21:57:33 77° SE 22:10:30 10° ENE
Lacrosse 4 Rocket 4.5 21:56:49 10° W 21:58:51 13° NW 22:00:53 10° NNW
Tiangong 1 4.0 21:56:36 10° WNW 21:57:19 16° WNW 21:57:19 16° WNW
USA 267 3.8 21:59:17 39° ENE 22:00:26 43° NNE 22:06:31 10° NW
ERS-1 Rocket 3.1 22:03:34 68° N 22:03:34 68° N 22:07:59 10° NNW
ARGOS 4.3 22:07:07 30° NNE 22:07:07 30° NNE 22:10:14 10° N
Cosmos 1459 Rocket 3.9 22:08:25 60° S 22:09:41 90° W 22:15:56 10° N
Cosmos 2173 Rocket 3.8 22:09:47 70° S 22:10:34 90° ENE 22:16:50 10° N
Cosmos 1269 Rocket 4.2 22:09:20 10° NNW 22:14:00 68° NW 22:14:00 68° NW
Lacrosse 5 3.4 22:21:01 10° W 22:25:34 33° NW 22:27:17 26° N
CZ-3B DEB 3.9 22:18:25 10° W 22:26:01 29° NW 22:28:42 19° N
SPOT 5 4.2 22:28:33 38° N 22:28:33 38° N 22:31:50 10° N
Cosmos 2016 Rocket 4.5 22:42:54 54° NNW 22:42:54 54° NNW 22:47:44 10° N
Cosmos 1833 Rocket 3.8 22:46:20 10° NNW 22:50:12 39° WNW 22:50:12 39° WNW
H-2A R/B 4.0 22:57:46 24° N 22:57:46 24° N 22:59:47 10° N
Cosmos 2082 Rocket 4.2 23:14:07 10° NW 23:17:10 23° WNW 23:17:10 23° WNW
